STARLINK-3145 (49455 NORAD) Tracking and Keplerian Element Data

This shows tracking and keplerian element data for the satellite.

Feedback or suggestion? Click here.




ElementValue
Catalog49455
NameSTARLINK-3145
Epoch Orbit370
Epoch Day15.91668981
Epoch Year2022
RAAN180.2279
Inclination53.2173
Eccentricity0.0001671
Argument of Perigee36.3555
Mean Anonmoly131.1797
Mean Motion15.55144951
Decay Rate-0.00650134
L11 49455U 21104AZ 22015.91668981 -.00650134 00000+0 -10268-1 0 9991
L22 49455 53.2173 180.2279 0001671 36.3555 131.1797 15.55144951 3700

Live tracking and technical data element details for STARLINK-3145 (NORAD 49455). STARLINK-3145 can be tracked NOW for your location showing map with azimuth and elevation plus other details from your city location.

Track the satellite on the map from your city or location and see movement details for azimuth, elevation, latitude, longitude, range, height, and movement on the map or in text.







IsCatalogInMostPopularTable: catalog: 49455, numindb: 8
Update: records affected: 1



GetName: 49455 STARLINK-3145

Hit Count: updated at: Thu, 20 Jan 2022 16:52:03 GMT